{"data":{"norad_id":64520,"intl_designator":"2025-134W","name":"KUIPER-00060","alt_names":[],"object_type":"PAYLOAD","status":"ACTIVE","operator":null,"country":"US","launch_date":"2025-06-23","launch_site_code":"AFETR","launch_vehicle":null,"mission":null,"orbit_class":"UNKNOWN","rcs_meters":null,"size_class":null,"mass_kg":null,"dimensions":null,"purposes":[],"wikipedia_slug":null,"has_3d_model":false,"image_url":null,"decayed_at":null,"tle_current":{"epoch":"2026-09-21T18:49:13.678176Z","epoch_age_seconds":70218,"freshness":"FRESH","line1":"1 64520U 25134W   26264.78418609 -.00000409  00000+0 -24594-4 0  9997","line2":"2 64520  51.9028  73.5321 0000623 115.8040 244.2986 14.79931173 69279","mean_motion":14.79931173,"eccentricity":6.23e-5,"inclination_deg":51.9028,"raan_deg":73.5321,"arg_perigee_deg":115.804,"mean_anomaly_deg":244.2986,"bstar":-2.4594e-5,"rev_number":6927,"period_min":97.301822292245,"perigee_km":629.10481820309,"apogee_km":629.9779749313,"semimajor_km":7007.6783965672,"source":"CELESTRAK","updated_at":"2026-09-22T09:00:29.812018Z"}}}